Flag for Puerto Rico Weather past 2 weeks in San Juan, Puerto Rico

Now
81 °F

Passing clouds.


Feels Like: 87 °F
Forecast: 81 / 88 °F
Wind: 3 mph from Southeast

Location: Luis Munoz Marin

Current Time: Oct 2, 2014 at 7:31:33 AM

Latest Report: Oct 2, 2014 at 6:56 AM


Visibility: 10 mi

Pressure: 30.02 "Hg

Humidity: 82%

Dew point: 75 °F

Location of San JuanLocation

Historic Weather in San Juan — Graph

°F

San Juan temperature yesterday

Maximum temperature yesterday: 90 °F (at 11:56 AM)
Minimum temperature yesterday: 79 °F (at 5:56 AM)
Average temperature yesterday: 84 °F

Past Weeks' High & Low Weather Summary

 TemperatureHumidityPressure
High93 °F (Sep 29, 2:56 PM)100% (Sep 19, 3:56 AM)30.05 "Hg (Sep 19, 3:56 AM)
Low74 °F (Sep 19, 5:56 AM)44% (Sep 29, 1:56 PM)29.84 "Hg (Sep 26, 4:56 PM)
Average83 °F81%29.95 "Hg
* Reported Sep 17 5:56 AM — Oct 2 5:56 AM, San Juan, Weather by CustomWeather, © 2014

Note: Actual official high and low records may vary slightly from our data, if they occured in-between our weather recording intervals... More about our weather records

Advertising

San Juan weather history for previous 24 hours

 ConditionsComfort  
Time TempWeatherWind HumidityBarometerVisibility
5:56 AM
Oct 2
80 °FPassing clouds.No wind87%30.01 "Hg10 mi
4:56 AM81 °FPassing clouds.3 mph85%30.00 "Hg10 mi
3:56 AM80 °FClear.3 mph85%29.98 "Hg10 mi
2:56 AM81 °FClear.3 mph82%29.99 "Hg10 mi
1:56 AM81 °FPassing clouds.No wind82%30.01 "Hg10 mi
12:56 AM81 °FPassing clouds.No wind85%30.02 "Hg10 mi
11:56 PM
Oct 1
82 °FPassing clouds.3 mph82%30.03 "Hg10 mi
10:56 PM83 °FPassing clouds.5 mph79%30.03 "Hg10 mi
9:56 PM82 °FPassing clouds.5 mph82%30.03 "Hg10 mi
8:56 PM83 °FPassing clouds.7 mph82%30.03 "Hg10 mi
7:56 PM83 °FPassing clouds.6 mph82%30.01 "Hg10 mi
6:56 PM84 °FPassing clouds.8 mph77%29.99 "Hg10 mi
5:56 PM86 °FPassing clouds.12 mph72%29.97 "Hg10 mi
4:56 PM88 °FScattered clouds.16 mph65%29.95 "Hg10 mi
3:56 PM89 °FScattered clouds.17 mph68%29.95 "Hg10 mi
2:56 PM90 °FPassing clouds.20 mph63%29.95 "Hg10 mi
1:56 PM90 °FPassing clouds.16 mph68%29.95 "Hg10 mi
12:56 PM89 °FPassing clouds.20 mph68%29.97 "Hg10 mi
11:56 AM90 °FPassing clouds.13 mph68%29.99 "Hg10 mi
10:56 AM89 °FScattered clouds.15 mph72%30.01 "Hg10 mi
9:56 AM87 °FScattered clouds.7 mph72%30.02 "Hg10 mi
8:56 AM85 °FPassing clouds.8 mph77%30.03 "Hg10 mi
7:56 AM84 °FPassing clouds.No wind74%30.01 "Hg10 mi
Weather by CustomWeather, © 2014

See weather overviewHow to use our weather pages